Location: Unspecified
(0.0000°N, 0.0000°E)
Time: 21:22:01
(UTC+00:00)

Tiros 1 - Pass Details

Date: 27 October 2021
Orbit: 630 x 664 km, 48.4° (Epoch: 04 December)

Event Time Altitude Azimuth Distance (km) Brightness Sun altitude
Rises 17:13:25 0° 330° (NNW) 2,910 10.7 7.4°
Reaches altitude 10° 17:15:47 10° 335° (NNW) 2,001 9.9 6.8°
Maximum altitude 17:20:15 51° 51° (NE) 787 7.4 5.7°
Drops below altitude 10° 17:24:43 10° 127° (SE) 2,000 9.3 4.7°
Sets 17:27:05 0° 132° (SE) 2,909 10.2 4.1°
